SCP
0 0 0 0 0 0 0 0 0 0 0 0 0 0 0 0 0 0 0 0 0 0 0 0 0 0 0 0 0 0 0 0 0 0 0 0 0 0
0 0 0 0 0 0 0 0 0 0 0 0 0 0 0 0 0 0 0 0 0 0 0 0 0 0 0 0 0 0 0 0 0 0 0 0 0 0
0 0 0 0 0 0 0 0 0 0 0 0 0 1 1 1 0 0 0 0 0 0 0 0 0 0 0 0 0 0 0 0 0 0 0 0 0 0
0 0 0 0 0 0 0 0 0 0 0 0 0 1 1 1 1 1 0 0 0 0 0 0 0 0 0 0 0 0 0 0 0 0 0 0 0 0
0 0 0 0 0 0 0 0 0 0 0 0 0 0 1 1 1 1 0 0 0 0 0 0 0 0 0 0 0 0 0 0 0 0 0 0 0 0
0 0 0 0 0 0 0 0 0 0 0 0 0 0 1 1 1 0 0 0 0 0 0 0 0 0 0 0 0 0 0 0 0 0 0 0 0 0
0 0 0 0 0 0 0 0 0 0 0 0 0 0 0 0 0 0 0 0 0 0 0 0 0 0 0 0 0 0 0 0 0 0 0 0 0 0
0 0 0 0 0 0 0 0 0 0 0 0 0 0 0 0 0 0 0 0 0 0 0 0 0 0 0 0 0 0 0 0 0 0 0 0 0 0
0 0 0 0 0 0 0 0 0 0 0 0 0 0 0 0 0 0 0 0 0 0 0 0 0 0 0 0 0 0 0 0 0 0 0 0 0 0
0 0 0 0 0 0 0 0 0 0 0 0 0 0 0 0 0 0 0 0 0 0 0 0 0 0 0 0 0 0 0 0 0 0 0 0 0 0
0 0 0 0 0 0 0 0 0 0 0 0 0 0 0 0 0 0 0 0 0 0 0 0 0 0 0 0 0 0 0 0 0 0 0 0 0 0
0 0 0 0 0 0 0 0 0 0 0 0 0 0 0 0 0 0 0 0 0 0 0 0 0 0 0 0 0 0 0 0 0 0 0 0 0 0
0 0 0 0 0 0 0 0 0 0 0 0 0 0 0 0 0 0 0 0 0 0 0 0 0 0 0 0 0 0 0 0 0 0 0 0 0 0
0 0 0 0 0 0 0 0 0 0 0 0 0 0 0 0 0 0 0 0 0 0 0 0 0 0 0 0 0 0 0 0 0 0 0 0 0 0
0 0 0 0 0 0 0 0 0 0 0 0 0 0 0 0 0 0 0 0 0 0 0 0 0 0 0 0 0 0 0 0 0 0 0 0 0 0
0 0 0 0 0 0 0 0 0 0 0 0 0 0 0 0 0 0 0 0 0 0 0 0 0 0 0 0 0 0 0 0 0 0 0 0 0 0
0 0 0 0 0 0 0 0 0 0 0 0 0 0 0 0 0 0 0 0 0 0 0 0 0 0 0 0 0 0 0 0 0 0 0 0 0 0
0 0 0 0 0 0 0 0 0 0 0 0 0 0 0 0 0 0 0 0 0 0 0 0 0 0 0 0 0 0 0 0 0 0 0 0 0 0
0 0 0 0 0 0 0 0 0 0 0 0 0 0 0 0 0 0 0 0 0 0 0 0 0 0 0 0 0 0 0 0 0 0 0 0 0 0
0 0 0 0 0 0 0 0 0 0 0 0 0 0 0 0 0 0 0 0 0 0 0 0 0 0 0 0 0 0 0 0 0 0 0 0 0 0
0 0 0 0 0 0 0 0 0 0 0 0 0 0 0 0 0 0 0 0 0 0 0 0 0 0 0 0 0 0 0 0 0 0 0 0 0 0
0 0 0 0 0 0 0 0 0 0 0 0 0 0 0 0 0 0 0 0 0 0 0 0 0 0 0 0 0 0 0 0 0 0 0 0 0 0
0 0 0 0 0 0 0 0 0 0 0 0 0 0 0 0 0 0 0 0 0 0 0 0 0 0 0 0 0 0 0 0 0 0 0 0 0 0
Wind_Speed
3 2 2 2 1 2 2 1 1 2 2 2 2 3 3 4 9 7 5 11 13 12 12 11 11 11 10 10 10 10 10 10 10 10 11 11 11 12
2 1 1 2 2 1 1 2 1 2 2 1 1 2 2 3 8 5 4 9 13 14 14 14 13 13 12 12 12 12 12 12 12 12 12 12 13 13
3 2 2 2 3 3 2 2 2 2 2 2 1 1 2 1 2 3 3 4 7 15 16 16 15 14 14 14 13 13 13 13 13 13 13 13 13 14
3 3 2 3 2 2 3 3 2 2 1 3 2 2 1 2 2 3 5 5 4 9 14 15 15 15 14 14 14 14 14 14 14 14 14 14 15 15
3 2 2 2 1 2 2 3 3 3 1 2 3 2 2 2 1 3 5 3 6 6 7 10 12 13 14 14 15 15 15 15 15 15 14 14 14 15
1 2 2 2 2 2 2 3 3 3 3 3 3 3 2 2 2 2 3 3 4 7 6 4 6 10 12 14 15 15 15 15 15 14 14 14 14 14
3 4 5 6 7 5 3 4 4 3 3 3 3 3 3 3 3 3 3 4 4 4 3 4 3 3 5 10 13 14 14 14 14 14 14 14 14 14
4 4 5 6 7 7 7 6 5 3 3 3 3 3 4 4 4 4 4 4 4 3 4 6 5 5 5 5 9 10 10 12 13 13 13 14 14 14
5 4 4 6 7 5 4 3 3 3 2 2 2 3 3 3 4 5 5 5 6 6 6 7 6 6 6 8 9 9 10 11 11 12 12 13 14 14
6 6 6 6 8 7 4 3 2 2 1 1 1 2 3 2 3 4 6 6 6 6 5 6 6 6 7 5 9 11 11 11 11 12 12 13 14 15
6 7 7 7 10 10 6 5 4 4 4 3 4 6 7 8 6 3 4 5 6 5 4 5 5 6 6 5 7 10 11 12 12 12 13 13 14 14
5 7 11 9 9 10 6 5 5 6 7 8 6 7 7 7 8 5 4 5 6 5 4 5 6 7 6 4 4 6 8 10 12 13 13 14 15 9
3 4 4 6 6 7 5 3 3 5 6 6 6 5 3 3 2 1 2 3 5 6 6 6 7 7 8 8 7 6 6 6 7 8 11 14 15 11
4 4 3 3 4 5 4 4 7 7 5 5 4 4 4 5 5 5 4 4 4 6 6 6 6 6 8 10 9 6 6 6 7 7 7 10 12 14
4 3 3 4 5 4 3 5 5 4 4 5 5 5 5 5 5 5 5 5 6 7 7 6 6 6 6 9 9 8 9 7 7 7 7 7 7 7
4 4 6 5 4 5 3 2 2 3 4 4 5 5 5 5 5 5 6 6 7 6 6 7 7 7 8 8 9 10 8 8 7 8 8 7 7 7
7 4 2 1 2 3 4 4 4 5 5 5 5 6 6 6 6 6 5 6 7 7 7 6 6 7 8 9 9 9 9 9 8 8 8 9 8 7
6 3 4 5 5 6 6 6 6 6 6 6 6 6 6 7 7 7 7 7 7 8 8 8 9 9 8 7 7 9 8 9 9 9 9 10 10 8
3 3 4 5 5 5 5 6 6 5 5 5 6 6 6 7 7 7 7 7 8 8 8 8 8 8 11 12 8 8 10 11 11 10 9 9 11 10
2 4 5 5 5 5 5 5 5 5 5 6 6 6 6 7 7 8 7 8 9 9 9 8 7 7 9 11 12 12 13 11 10 10 11 10 10 12
5 5 5 5 5 4 4 4 5 5 6 6 6 6 7 7 8 8 8 11 9 9 9 9 8 12 10 9 10 10 9 12 13 11 12 12 12 11
5 5 5 5 4 4 4 4 5 5 6 6 7 8 8 8 9 10 9 9 8 9 10 10 10 9 9 10 12 12 13 12 13 16 16 15 10 10
5 5 4 4 4 4 5 6 7 6 6 7 8 8 9 9 9 9 9 8 9 10 10 10 9 9 9 10 11 11 15 15 11 11 10 13 16 18
Wind_Direction
238 224 254 287 276 297 319 332 321 302 278 223 187 175 159 140 159 190 195 199 205 210 216 222 226 229 233 236 238 241 245 248 250 252 253 255 256 256
251 264 235 295 305 267 281 298 303 298 297 290 240 174 160 163 172 211 222 199 208 214 220 223 226 229 232 236 240 243 245 247 249 250 251 252 253 254
241 227 223 283 320 333 324 306 296 298 290 301 319 41 126 150 160 235 245 213 214 220 223 225 226 230 233 237 240 243 246 247 249 250 251 251 251 252
229 246 241 245 239 288 320 317 312 315 310 303 313 335 298 228 217 242 261 260 256 233 225 227 229 232 236 239 242 244 246 247 249 250 251 251 252 253
219 220 242 271 281 292 295 312 321 316 316 291 292 299 298 304 287 272 282 295 296 289 244 234 238 243 245 245 246 247 248 248 249 250 251 253 254 254
66 65 52 41 9 327 318 334 328 326 326 316 304 306 309 331 343 324 309 320 310 307 309 286 255 252 255 256 255 254 254 253 253 252 252 252 253 254
77 75 71 69 62 47 37 22 4 353 341 332 321 331 347 358 354 337 317 316 301 295 318 313 305 287 275 269 265 260 257 256 254 252 252 253 253 254
87 82 79 64 62 64 61 54 42 20 3 348 343 347 0 4 356 338 331 329 313 331 338 312 305 290 276 267 265 262 262 260 259 256 255 254 254 254
69 62 58 53 41 34 46 65 66 67 58 3 351 348 345 356 347 331 323 314 292 296 298 289 283 281 280 290 295 287 282 277 268 261 256 255 256 256
73 72 71 54 32 20 13 21 24 20 358 309 318 305 314 323 305 295 291 289 279 278 278 285 287 285 293 301 307 305 297 290 280 270 264 263 263 262
72 66 70 65 36 22 16 13 11 358 350 341 302 282 277 272 266 285 292 297 299 300 306 305 313 316 310 304 305 315 320 311 299 288 280 275 272 272
86 76 64 58 40 28 20 12 5 354 341 328 308 283 269 263 253 242 277 301 309 309 338 341 326 327 310 301 318 324 315 306 300 294 288 282 279 279
79 86 72 48 33 21 6 356 343 323 312 303 300 304 310 323 351 346 320 317 313 308 322 327 316 311 298 301 304 298 299 301 303 297 291 286 282 275
48 56 53 6 349 334 325 317 319 317 306 315 327 340 350 356 354 346 330 313 295 292 295 301 300 302 304 302 303 303 302 299 297 294 292 293 288 280
33 21 328 300 308 302 267 290 310 323 341 343 345 348 348 344 337 332 329 323 314 306 309 309 306 302 297 297 299 302 303 297 291 293 293 292 289 287
2 318 286 272 280 309 330 332 331 0 359 349 345 342 341 339 340 339 333 330 321 313 313 315 308 305 304 299 297 296 295 294 297 295 297 297 295 289
331 302 308 20 19 16 15 18 15 11 6 356 347 341 337 335 333 332 326 322 317 317 320 321 318 310 300 296 295 296 298 298 298 301 303 299 292 288
338 344 19 26 23 18 12 9 10 10 2 349 342 340 338 335 331 330 327 324 321 321 322 321 318 313 308 296 288 303 307 306 306 302 299 296 294 290
340 7 33 31 24 15 10 7 1 357 350 343 342 340 337 334 331 328 327 326 324 321 318 315 314 314 313 310 306 305 303 300 297 295 293 291 291 291
22 28 32 27 23 16 8 1 352 348 349 344 338 337 335 331 327 325 324 322 320 315 312 312 314 315 311 305 302 300 292 289 295 296 296 293 287 286
31 29 26 20 17 13 5 355 347 345 346 339 337 338 334 329 324 322 319 317 315 313 314 312 309 308 301 296 295 296 297 294 289 289 294 295 296 295
26 22 18 10 10 10 3 355 348 347 347 345 344 339 333 327 321 317 315 315 313 311 310 307 307 308 306 303 302 302 303 303 297 288 281 277 285 290
20 12 3 2 11 11 4 350 346 350 353 350 343 334 327 320 316 313 314 312 311 309 309 308 309 307 304 301 301 302 304 307 306 306 300 296 289 280